CZ-3C DEB, 40857

Orbit data source: Space-Track

CZ-3C DEB, 40857 is space debris in HEO originally from a launch on Fri, 24 Feb 2012 UTC launched from the Xichang Space Center, China (XSC). Debris objects in space refer to the collection of defunct objects orbiting the Earth. Examples of debris include non-operational satellites, rocket bodies, and fragments generated from explosions, collisions, or faulty payload assembly.

Loading next visibility...
Identifier
40857, 2012-008X
Orbit
HEO
Country
Flag of CNCN / PRC
Related business
Manufacturer
CALT
Mission
Spacecraft
Bus & Motor
Unknown
Mass
Unknown
Launch date (UTC)
2012-02-24 (14 years ago)
Launch vehicle
Unknown
Launch site
Xichang Space Center, China (XSC)
Object type
Payload
Rocket body
Debris
Shape & HBR
Unknown shape, 0.2 m
Radar Cross Section
Medium (>0.1 m² and <1 m²)

Expand to show TLE details & history
Last TLE update: 3 months ago

TLE from 3 months ago
0 CZ-3C DEB
1 40857U 12008X   26142.41342459  .00000058  00000-0  72307-2 0  9996
2 40857  19.8162  71.7262 7129471 132.9454 314.3067  2.21829147    18
Epoch: 2026-05-22T09:55Z
TLE epoch observation values (Epoch: 2026-05-22T09:55:19.884Z)
Latitude
0.00006°
Longitude
42.76928°
Altitude
17,408.082 km
Speed
4.179 km/s
True Right ascension
04h 46m 35s
True Declination
0° 00' 00"
Sunlit
Object was in daylight at epoch
Visualization orbit readout
Latitude
Unknown
Longitude
Unknown
Altitude
Unknown
Speed
Unknown
Apparent Right ascension
Unknown
Apparent Declination
Unknown
Sunlit
N/A
Visualization observer readout
Local Sidereal Time
20:03:51
Azimuth
Unknown
Elevation
Unknown
Doppler factor
Unknown
Orbital elements
Apogee altitude
36,169.433 km
Perigee altitude
751.916 km
Semi-major axis
24,838.811 km
Eccentricity
0.71295
Inclination
19.8162°
RAAN
71.7262°
Arg. of periapsis
132.9454°
True anomaly
227.06018°
Mean anomaly
314.3067°
Eccentric anomaly
273.53559°
Mean motion
0.55443 °/min
Orbital period
649.32 mins
BSTAR
0.0072307
Loading maneuver chart data...
Computing Atmospheric mass density...
Loading historical data...
Loading historical data...
Loading historical data...
Loading historical data...
Loading historical data...
Loading historical data...
Loading historical data...

Documentation

Showing up to 5 results
|